"SCLK","SCET","ORBIT_NUMBER","ALTITUDE","LATITUDE_PLANEOGRAPHIC","LATITUDE_PLANETOCENTRIC","LOCAL_TRUE_SOLAR_TIME","WEST_LONGITUDE","X_SUN_DIR_DISTANCE","RHO_PRP_SUN_DISTANCE","SOLAR_ZENITH_ANGLE","ELECTRON_PLASMA_FREQUENCY","FPE_QUALITY","FPP_VERIFICATION","ELECTRON_PLASMA_DENSITY","ELECTRON_CYCLOTRON_PERIOD","FCP_QUALITY","B_MAGNITUDE"
"1/0365244495.46996",2014-11-28T08:48:19.654,13845,1564.00,42.04,41.77,"08:40:58",260.47,-1.200,0.820,145.60,6.80e+01,2,,5.73e+01,1.94e+00,1,1.84e+01
"1/0365244503.17046",2014-11-28T08:48:27.197,13845,1553.00,42.32,42.05,"08:38:48",260.48,-1.200,0.820,145.47,7.00e+01,2,,6.08e+01,1.90e+00,1,1.88e+01
"1/0365244510.52632",2014-11-28T08:48:34.740,13845,1542.00,42.60,42.34,"08:38:55",260.48,-1.200,0.820,145.33,7.20e+01,2,,6.43e+01,,,
"1/0365244518.22682",2014-11-28T08:48:42.283,13845,1532.00,42.89,42.62,"08:39:03",260.48,-1.190,0.820,145.18,7.20e+01,2,,6.43e+01,,,
"1/0365244525.58334",2014-11-28T08:48:49.827,13845,1521.00,43.17,42.90,"08:39:10",260.48,-1.190,0.830,145.04,7.90e+01,2,,7.74e+01,,,
"1/0365244533.28384",2014-11-28T08:48:57.370,13845,1510.00,43.46,43.19,"08:39:17",260.48,-1.180,0.830,144.89,7.80e+01,2,,7.54e+01,4.59e+00,1,7.78e+00
"1/0365244540.63970",2014-11-28T08:49:04.913,13845,1499.00,43.75,43.48,"08:37:07",260.49,-1.180,0.830,144.75,7.50e+01,2,,6.98e+01,4.62e+00,1,7.73e+00
"1/0365244548.34020",2014-11-28T08:49:12.456,13845,1489.00,44.03,43.76,"08:37:15",260.49,-1.170,0.830,144.60,7.70e+01,2,,7.35e+01,,,
"1/0365244556.04136",2014-11-28T08:49:20.000,13845,1478.00,44.32,44.05,"08:37:22",260.49,-1.170,0.830,144.44,7.00e+01,2,,6.08e+01,4.60e+00,1,7.76e+00
"1/0365244563.39722",2014-11-28T08:49:27.543,13845,1467.00,44.62,44.34,"08:37:29",260.49,-1.160,0.830,144.29,7.00e+01,2,,6.08e+01,4.46e+00,1,8.01e+00
"1/0365244571.09772",2014-11-28T08:49:35.086,13845,1457.00,44.91,44.64,"08:37:37",260.49,-1.160,0.830,144.13,7.20e+01,2,,6.43e+01,,,
"1/0365244578.45358",2014-11-28T08:49:42.629,13845,1446.00,45.20,44.93,"08:40:02",260.48,-1.150,0.830,143.97,7.40e+01,2,,6.79e+01,4.61e+00,1,7.74e+00
"1/0365244586.15408",2014-11-28T08:49:50.172,13845,1435.00,45.50,45.22,"08:40:09",260.48,-1.150,0.840,143.81,7.10e+01,2,,6.25e+01,,,
"1/0365244593.51059",2014-11-28T08:49:57.716,13845,1425.00,45.79,45.52,"08:40:16",260.48,-1.140,0.840,143.65,7.20e+01,2,,6.43e+01,,,
"1/0365244601.21109",2014-11-28T08:50:05.259,13845,1414.00,46.09,45.82,"08:40:24",260.48,-1.140,0.840,143.48,7.40e+01,2,,6.79e+01,,,
"1/0365244608.56695",2014-11-28T08:50:12.802,13845,1404.00,46.39,46.12,"08:40:31",260.48,-1.130,0.840,143.32,7.30e+01,2,,6.61e+01,,,
"1/0365244616.26745",2014-11-28T08:50:20.345,13845,1393.00,46.69,46.42,"08:42:56",260.47,-1.130,0.840,143.15,7.30e+01,2,,6.61e+01,,,
"1/0365244623.62331",2014-11-28T08:50:27.888,13845,1383.00,46.99,46.72,"08:43:03",260.47,-1.120,0.840,142.97,6.90e+01,2,,5.90e+01,,,
"1/0365244631.32447",2014-11-28T08:50:35.432,13845,1373.00,47.30,47.02,"08:45:28",260.46,-1.120,0.840,142.80,7.40e+01,2,,6.79e+01,,,
"1/0365244639.02497",2014-11-28T08:50:42.975,13845,1362.00,47.60,47.32,"08:45:35",260.46,-1.110,0.850,142.62,7.60e+01,2,,7.16e+01,,,
"1/0365244646.38083",2014-11-28T08:50:50.518,13845,1352.00,47.91,47.63,"08:48:00",260.45,-1.110,0.850,142.45,7.70e+01,2,,7.35e+01,,,
"1/0365244654.08133",2014-11-28T08:50:58.061,13845,1341.00,48.21,47.94,"08:48:07",260.45,-1.100,0.850,142.26,7.70e+01,2,,7.35e+01,,,
"1/0365244661.43719",2014-11-28T08:51:05.604,13845,1331.00,48.52,48.24,"08:50:32",260.44,-1.100,0.850,142.08,7.60e+01,2,,7.16e+01,,,
"1/0365244669.13835",2014-11-28T08:51:13.148,13845,1321.00,48.83,48.55,"08:52:57",260.43,-1.090,0.850,141.90,7.50e+01,2,,6.98e+01,,,
"1/0365244676.49421",2014-11-28T08:51:20.691,13845,1311.00,49.14,48.86,"08:53:04",260.43,-1.090,0.850,141.71,7.20e+01,2,,6.43e+01,,,
"1/0365244684.19471",2014-11-28T08:51:28.234,13845,1300.00,49.45,49.17,"08:55:29",260.42,-1.080,0.860,141.52,6.80e+01,2,,5.73e+01,,,
"1/0365244691.55057",2014-11-28T08:51:35.777,13845,1290.00,49.77,49.49,"08:57:54",260.41,-1.080,0.860,141.33,6.80e+01,2,,5.73e+01,,,
"1/0365244699.25107",2014-11-28T08:51:43.320,13845,1280.00,50.08,49.80,"09:00:19",260.40,-1.070,0.860,141.13,6.50e+01,2,,5.24e+01,,,
"1/0365244706.60758",2014-11-28T08:51:50.864,13845,1270.00,50.40,50.12,"09:02:44",260.39,-1.070,0.860,140.94,6.40e+01,2,,5.08e+01,,,
"1/0365244714.30808",2014-11-28T08:51:58.407,13845,1260.00,50.71,50.44,"09:07:26",260.37,-1.060,0.860,140.74,6.30e+01,2,,4.92e+01,,,
"1/0365244722.00858",2014-11-28T08:52:05.950,13845,1250.00,51.03,50.75,"09:09:51",260.36,-1.060,0.860,140.54,6.20e+01,2,,4.77e+01,,,
"1/0365244729.36444",2014-11-28T08:52:13.493,13845,1240.00,51.35,51.08,"09:12:16",260.35,-1.050,0.870,140.34,6.50e+01,2,,5.24e+01,,,
"1/0365244737.06494",2014-11-28T08:52:21.036,13845,1230.00,51.68,51.40,"09:14:41",260.34,-1.040,0.870,140.13,6.40e+01,2,,5.08e+01,,,
"1/0365244744.42146",2014-11-28T08:52:28.580,13845,1220.00,52.00,51.72,"09:19:23",260.32,-1.040,0.870,139.93,6.60e+01,2,,5.40e+01,,,
"1/0365244752.12196",2014-11-28T08:52:36.123,13845,1210.00,52.32,52.04,"09:24:05",260.30,-1.030,0.870,139.72,6.70e+01,2,,5.57e+01,,,
"1/0365244759.47782",2014-11-28T08:52:43.666,13845,1200.00,52.65,52.37,"09:26:30",260.29,-1.030,0.870,139.51,6.90e+01,2,,5.90e+01,,,
"1/0365244767.17832",2014-11-28T08:52:51.209,13845,1190.00,52.97,52.70,"09:31:13",260.27,-1.020,0.870,139.29,7.20e+01,2,,6.43e+01,,,
"1/0365244774.53418",2014-11-28T08:52:58.752,13845,1180.00,53.30,53.03,"09:35:55",260.25,-1.020,0.880,139.08,7.80e+01,2,,7.54e+01,,,
"1/0365244782.23534",2014-11-28T08:53:06.296,13845,1170.00,53.63,53.36,"09:40:37",260.23,-1.010,0.880,138.86,8.90e+01,2,,9.82e+01,3.09e+00,1,1.15e+01
"1/0365244789.59120",2014-11-28T08:53:13.839,13845,1160.00,53.96,53.69,"09:45:20",260.21,-1.010,0.880,138.64,9.90e+01,2,,1.22e+02,,,
"1/0365244797.29170",2014-11-28T08:53:21.382,13845,1151.00,54.30,54.02,"09:50:02",260.19,-1.000,0.880,138.42,9.30e+01,2,,1.07e+02,,,
"1/0365244804.64756",2014-11-28T08:53:28.925,13845,1141.00,54.63,54.35,"09:54:44",260.17,-1.000,0.880,138.19,8.90e+01,2,,9.82e+01,,,
"1/0365244812.34806",2014-11-28T08:53:36.468,13845,1131.00,54.96,54.69,"09:59:27",260.15,-0.990,0.890,137.97,9.10e+01,2,,1.03e+02,,,
"1/0365244820.04921",2014-11-28T08:53:44.012,13845,1122.00,55.30,55.03,"10:06:27",260.12,-0.980,0.890,137.74,8.70e+01,2,,9.39e+01,,,
"1/0365244827.40507",2014-11-28T08:53:51.555,13845,1112.00,55.64,55.37,"10:11:09",260.10,-0.980,0.890,137.51,6.40e+01,2,,5.08e+01,,,
"1/0365244835.10557",2014-11-28T08:53:59.098,13845,1103.00,55.98,55.71,"10:18:09",260.07,-0.970,0.890,137.27,4.50e+01,1,,2.51e+01,2.80e+00,1,1.28e+01
"1/0365244842.46143",2014-11-28T08:54:06.641,13845,1093.00,56.32,56.05,"10:25:09",260.04,-0.970,0.890,137.04,,,,,2.96e+00,1,1.21e+01
"1/0365244850.16193",2014-11-28T08:54:14.184,13845,1084.00,56.66,56.39,"10:32:09",260.01,-0.960,0.900,136.80,,,,,2.84e+00,1,1.26e+01
"1/0365244872.57481",2014-11-28T08:54:36.814,13845,1055.00,57.70,57.43,"10:55:26",259.91,-0.940,0.900,136.08,,,,,2.84e+00,1,1.26e+01
"1/0365244887.63117",2014-11-28T08:54:51.900,13845,1037.00,58.39,58.13,"11:11:43",259.84,-0.930,0.910,135.58,,,,,3.11e+00,1,1.15e+01
"1/0365244895.33233",2014-11-28T08:54:59.444,13845,1028.00,58.74,58.48,"11:21:00",259.80,-0.930,0.910,135.33,,,,,3.08e+00,1,1.16e+01
"1/0365244903.03283",2014-11-28T08:55:06.987,13845,1018.00,59.10,58.83,"11:30:18",259.76,-0.920,0.910,135.08,,,,,2.96e+00,1,1.20e+01
"1/0365244910.38869",2014-11-28T08:55:14.530,13845,1009.00,59.45,59.18,"11:39:35",259.72,-0.910,0.910,134.83,,,,,3.07e+00,1,1.16e+01
"1/0365244918.08919",2014-11-28T08:55:22.073,13845,1000.00,59.80,59.54,"11:48:53",259.68,-0.910,0.920,134.57,,,,,3.21e+00,1,1.11e+01
"1/0365244925.44505",2014-11-28T08:55:29.616,13845,991.00,60.16,59.90,"12:00:27",259.63,-0.900,0.920,134.31,,,,,3.52e+00,1,1.02e+01
"1/0365244933.14620",2014-11-28T08:55:37.160,13845,982.00,60.52,60.26,"12:12:02",259.58,-0.900,0.920,134.05,,,,,2.89e+00,1,1.24e+01
"1/0365244940.50206",2014-11-28T08:55:44.703,13845,973.00,60.88,60.62,"12:23:37",259.53,-0.890,0.920,133.79,,,,,3.42e+00,1,1.04e+01
"1/0365244948.20256",2014-11-28T08:55:52.246,13845,964.00,61.24,60.98,"12:35:12",259.48,-0.880,0.920,133.53,3.80e+01,1,,1.79e+01,,,
"1/0365244955.55842",2014-11-28T08:55:59.789,13845,955.00,61.60,61.34,"12:46:47",259.43,-0.880,0.930,133.26,3.90e+01,1,,1.89e+01,,,
"1/0365244963.25892",2014-11-28T08:56:07.332,13845,946.00,61.96,61.71,"13:00:39",259.37,-0.870,0.930,132.99,,,,,3.90e+00,1,9.16e+00
"1/0365244970.61544",2014-11-28T08:56:14.876,13845,938.00,62.32,62.07,"13:14:32",259.31,-0.860,0.930,132.72,4.30e+01,2,,2.29e+01,3.96e+00,1,9.01e+00
"1/0365244978.31594",2014-11-28T08:56:22.419,13845,929.00,62.69,62.44,"13:28:24",259.25,-0.860,0.930,132.45,3.80e+01,1,,1.79e+01,,,
"1/0365244986.01644",2014-11-28T08:56:29.962,13845,920.00,63.06,62.81,"13:44:34",259.18,-0.850,0.940,132.17,3.90e+01,1,,1.89e+01,4.26e+00,1,8.39e+00
"1/0365244993.37230",2014-11-28T08:56:37.505,13845,912.00,63.43,63.18,"13:58:26",259.12,-0.850,0.940,131.89,3.90e+01,1,,1.89e+01,3.90e+00,1,9.16e+00
"1/0365245001.07280",2014-11-28T08:56:45.048,13845,903.00,63.80,63.55,"14:14:36",259.05,-0.840,0.940,131.62,4.30e+01,2,,2.29e+01,4.29e+00,1,8.32e+00
"1/0365245008.42932",2014-11-28T08:56:52.592,13845,895.00,64.17,63.92,"14:33:04",258.97,-0.830,0.940,131.33,4.60e+01,1,,2.62e+01,,,
"1/0365245016.12982",2014-11-28T08:57:00.135,13845,886.00,64.54,64.30,"14:49:14",258.90,-0.830,0.940,131.05,5.00e+01,2,,3.10e+01,,,
"1/0365245023.48568",2014-11-28T08:57:07.678,13845,878.00,64.91,64.67,"15:07:41",258.82,-0.820,0.950,130.77,6.10e+01,2,,4.61e+01,,,
"1/0365245031.18618",2014-11-28T08:57:15.221,13845,869.00,65.29,65.05,"15:28:26",258.73,-0.810,0.950,130.48,6.20e+01,2,,4.77e+01,,,
"1/0365245038.54204",2014-11-28T08:57:22.764,13845,861.00,65.67,65.43,"15:49:11",258.64,-0.810,0.950,130.19,7.40e+01,2,,6.79e+01,,,
"1/0365245046.24319",2014-11-28T08:57:30.308,13845,853.00,66.04,65.81,"16:09:56",258.55,-0.800,0.950,129.90,6.70e+01,2,,5.57e+01,,,
"1/0365245053.59905",2014-11-28T08:57:37.851,13845,844.00,66.42,66.19,"16:30:41",258.46,-0.800,0.960,129.61,6.00e+01,2,,4.46e+01,,,
"1/0365245061.29955",2014-11-28T08:57:45.394,13845,836.00,66.80,66.58,"16:53:43",258.36,-0.790,0.960,129.31,6.20e+01,2,,4.77e+01,,,
"1/0365245069.00005",2014-11-28T08:57:52.937,13845,828.00,67.19,66.96,"17:19:03",258.25,-0.780,0.960,129.01,5.90e+01,2,,4.32e+01,,,
"1/0365245076.35591",2014-11-28T08:58:00.480,13845,820.00,67.57,67.35,"17:44:23",258.14,-0.780,0.960,128.71,6.10e+01,2,,4.61e+01,,,
"1/0365245084.05707",2014-11-28T08:58:08.024,13845,812.00,67.95,67.73,"18:09:43",258.03,-0.770,0.960,128.41,5.90e+01,2,,4.32e+01,,,
"1/0365245091.41293",2014-11-28T08:58:15.567,13845,804.00,68.34,68.12,"18:37:21",257.91,-0.760,0.970,128.11,6.40e+01,2,,5.08e+01,,,
"1/0365245099.11343",2014-11-28T08:58:23.110,13845,796.00,68.73,68.51,"19:07:16",257.78,-0.760,0.970,127.80,5.80e+01,2,,4.17e+01,,,
"1/0365245106.46929",2014-11-28T08:58:30.653,13845,789.00,69.12,68.90,"19:37:10",257.65,-0.750,0.970,127.50,6.20e+01,2,,4.77e+01,,,
"1/0365245114.17045",2014-11-28T08:58:38.197,13845,781.00,69.51,69.30,"20:09:23",257.51,-0.740,0.970,127.19,6.40e+01,2,,5.08e+01,,,
"1/0365245121.52631",2014-11-28T08:58:45.740,13845,773.00,69.90,69.69,"20:41:35",257.37,-0.740,0.980,126.88,5.80e+01,2,,4.17e+01,,,
"1/0365245129.22681",2014-11-28T08:58:53.283,13845,765.00,70.29,70.09,"21:16:05",257.22,-0.730,0.980,126.57,5.90e+01,2,,4.32e+01,,,
"1/0365245136.58267",2014-11-28T08:59:00.826,13845,758.00,70.68,70.48,"21:52:53",257.06,-0.720,0.980,126.25,6.20e+01,2,,4.77e+01,,,
"1/0365245144.28317",2014-11-28T08:59:08.369,13845,750.00,71.08,70.88,"22:31:58",256.89,-0.720,0.980,125.93,5.90e+01,2,,4.32e+01,,,
"1/0365245151.63968",2014-11-28T08:59:15.913,13845,743.00,71.47,71.28,"23:13:20",256.71,-0.710,0.980,125.62,6.20e+01,2,,4.77e+01,,,
"1/0365245159.34018",2014-11-28T08:59:23.456,13845,735.00,71.87,71.68,"23:57:00",256.52,-0.700,0.990,125.30,6.60e+01,2,,5.40e+01,,,
"1/0365245167.04068",2014-11-28T08:59:30.999,13845,728.00,72.27,72.08,"00:40:41",256.33,-0.690,0.990,124.97,6.30e+01,2,,4.92e+01,,,
"1/0365245174.39654",2014-11-28T08:59:38.542,13845,721.00,72.67,72.48,"01:28:56",256.12,-0.690,0.990,124.65,6.60e+01,2,,5.40e+01,,,
"1/0365245182.09704",2014-11-28T08:59:46.085,13845,714.00,73.07,72.89,"02:19:28",255.90,-0.680,0.990,124.32,6.60e+01,2,,5.40e+01,,,
"1/0365245189.45356",2014-11-28T08:59:53.629,13845,706.00,73.47,73.29,"03:14:36",255.66,-0.670,0.990,124.00,6.80e+01,2,,5.73e+01,,,
"1/0365245197.15406",2014-11-28T09:00:01.172,13845,699.00,73.87,73.70,"04:09:43",255.42,-0.670,1.000,123.67,6.40e+01,2,,5.08e+01,,,
"1/0365245204.50992",2014-11-28T09:00:08.715,13845,692.00,74.28,74.11,"05:09:26",255.16,-0.660,1.000,123.34,7.10e+01,2,,6.25e+01,,,
"1/0365245212.21042",2014-11-28T09:00:16.258,13845,685.00,74.68,74.51,"06:13:43",254.88,-0.650,1.000,123.00,7.60e+01,2,,7.16e+01,,,
"1/0365245219.56628",2014-11-28T09:00:23.801,13845,678.00,75.08,74.92,"07:22:36",254.58,-0.650,1.000,122.67,7.30e+01,2,,6.61e+01,,,
"1/0365245227.26744",2014-11-28T09:00:31.345,13845,672.00,75.49,75.33,"08:33:46",254.27,-0.640,1.010,122.33,8.00e+01,2,,7.94e+01,,,
"1/0365245234.62330",2014-11-28T09:00:38.888,13845,665.00,75.90,75.74,"09:51:49",253.93,-0.630,1.010,121.99,7.80e+01,2,,7.54e+01,5.23e+00,1,6.83e+00
"1/0365245242.32380",2014-11-28T09:00:46.431,13845,658.00,76.31,76.15,"11:12:09",253.58,-0.620,1.010,121.65,7.60e+01,2,,7.16e+01,5.21e+00,1,6.85e+00
"1/0365245250.02430",2014-11-28T09:00:53.974,13845,652.00,76.71,76.57,"12:39:22",253.20,-0.620,1.010,121.31,8.00e+01,2,,7.94e+01,,,
"1/0365245257.38016",2014-11-28T09:01:01.517,13845,645.00,77.12,76.98,"14:13:27",252.79,-0.610,1.010,120.97,7.90e+01,2,,7.74e+01,,,
"1/0365245265.08131",2014-11-28T09:01:09.061,13845,639.00,77.53,77.39,"15:54:25",252.35,-0.600,1.020,120.62,8.20e+01,2,,8.34e+01,,,
"1/0365245272.43717",2014-11-28T09:01:16.604,13845,632.00,77.94,77.81,"17:42:15",251.88,-0.600,1.020,120.28,9.70e+01,2,,1.17e+02,,,
"1/0365245280.13767",2014-11-28T09:01:24.147,13845,626.00,78.35,78.22,"19:39:15",251.37,-0.590,1.020,119.93,1.16e+02,2,,1.67e+02,,,
"1/0365245287.49353",2014-11-28T09:01:31.690,13845,619.00,78.76,78.63,"21:45:26",250.82,-0.580,1.020,119.58,1.16e+02,2,,1.67e+02,,,
"1/0365245295.19403",2014-11-28T09:01:39.233,13845,613.00,79.17,79.05,"00:00:46",250.23,-0.570,1.020,119.22,1.19e+02,2,,1.76e+02,,,
"1/0365245302.55055",2014-11-28T09:01:46.777,13845,607.00,79.58,79.46,"02:29:52",249.58,-0.570,1.030,118.87,1.25e+02,2,,1.94e+02,,,
"1/0365245310.25105",2014-11-28T09:01:54.320,13845,601.00,79.99,79.88,"05:10:25",248.88,-0.560,1.030,118.52,1.33e+02,2,,2.19e+02,,,
"1/0365245317.60691",2014-11-28T09:02:01.863,13845,595.00,80.40,80.29,"08:07:00",248.11,-0.550,1.030,118.16,1.49e+02,2,,2.75e+02,,,
"1/0365245325.30741",2014-11-28T09:02:09.406,13845,589.00,80.81,80.70,"11:17:21",247.28,-0.550,1.030,117.80,1.47e+02,2,,2.68e+02,5.19e+00,1,6.88e+00
"1/0365245333.00791",2014-11-28T09:02:16.949,13845,583.00,81.22,81.12,"14:48:19",246.36,-0.540,1.030,117.44,1.57e+02,2,,3.06e+02,,,
"1/0365245340.36443",2014-11-28T09:02:24.493,13845,578.00,81.62,81.53,"18:42:13",245.34,-0.530,1.040,117.08,1.69e+02,2,,3.54e+02,5.41e+00,1,6.61e+00
"1/0365245348.06493",2014-11-28T09:02:32.036,13845,572.00,82.03,81.94,"22:59:01",244.22,-0.520,1.040,116.72,1.77e+02,2,,3.89e+02,,,
"1/0365245355.42079",2014-11-28T09:02:39.579,13845,566.00,82.43,82.34,"03:45:37",242.97,-0.520,1.040,116.35,1.88e+02,2,,4.38e+02,,,
"1/0365245363.12129",2014-11-28T09:02:47.122,13845,561.00,82.83,82.74,"09:06:36",241.57,-0.510,1.040,115.98,1.93e+02,2,,4.62e+02,,,
"1/0365245370.47715",2014-11-28T09:02:54.665,13845,555.00,83.22,83.14,"15:06:32",240.00,-0.500,1.040,115.62,1.95e+02,2,,4.72e+02,,,
"1/0365245378.17830",2014-11-28T09:03:02.209,13845,550.00,83.61,83.54,"21:52:19",238.23,-0.490,1.040,115.25,2.06e+02,2,,5.26e+02,,,
"1/0365245385.53416",2014-11-28T09:03:09.752,13845,545.00,84.00,83.93,"05:30:48",236.23,-0.490,1.050,114.88,2.19e+02,2,,5.95e+02,,,
"1/0365245393.23466",2014-11-28T09:03:17.295,13845,539.00,84.37,84.31,"14:13:28",233.95,-0.480,1.050,114.51,2.26e+02,2,,6.33e+02,5.14e+00,1,6.95e+00
"1/0365245400.59052",2014-11-28T09:03:24.838,13845,534.00,84.74,84.68,"00:14:03",231.33,-0.470,1.050,114.13,2.29e+02,2,,6.50e+02,5.12e+00,1,6.97e+00
"1/0365245408.29102",2014-11-28T09:03:32.381,13845,529.00,85.10,85.04,"11:44:00",228.32,-0.460,1.050,113.76,2.16e+02,2,,5.79e+02,,,
"1/0365245415.64754",2014-11-28T09:03:39.925,13845,524.00,85.44,85.38,"01:03:59",224.83,-0.460,1.050,113.38,2.25e+02,2,,6.28e+02,,,
"1/0365245423.34804",2014-11-28T09:03:47.468,13845,519.00,85.76,85.70,"16:30:00",220.79,-0.450,1.050,113.00,2.36e+02,2,,6.91e+02,,,
"1/0365245431.04854",2014-11-28T09:03:55.011,13845,515.00,86.05,86.00,"10:27:17",216.09,-0.440,1.060,112.62,2.41e+02,2,,7.20e+02,,,
"1/0365245438.40440",2014-11-28T09:04:02.554,13845,510.00,86.32,86.27,"07:11:52",210.66,-0.430,1.060,112.24,2.31e+02,2,,6.62e+02,4.42e+00,1,8.08e+00
"1/0365245446.10490",2014-11-28T09:04:10.097,13845,505.00,86.55,86.51,"06:59:48",204.43,-0.430,1.060,111.86,2.26e+02,2,,6.33e+02,,,
"1/0365245453.46142",2014-11-28T09:04:17.641,13845,501.00,86.73,86.69,"09:53:23",197.39,-0.420,1.060,111.48,2.30e+02,2,,6.56e+02,4.50e+00,1,7.94e+00
"1/0365245461.16192",2014-11-28T09:04:25.184,13845,496.00,86.86,86.82,"15:31:58",189.63,-0.410,1.060,111.09,2.28e+02,2,,6.45e+02,4.50e+00,1,7.94e+00
"1/0365245468.51778",2014-11-28T09:04:32.727,13845,492.00,86.93,86.88,"23:07:26",181.36,-0.400,1.060,110.71,2.31e+02,2,,6.62e+02,,,
"1/0365245476.21828",2014-11-28T09:04:40.270,13845,487.00,86.93,86.88,"07:28:44",172.89,-0.390,1.070,110.32,2.28e+02,2,,6.45e+02,3.77e+00,1,9.47e+00
"1/0365245483.57414",2014-11-28T09:04:47.813,13845,483.00,86.86,86.82,"15:11:04",164.59,-0.390,1.070,109.93,2.12e+02,2,,5.57e+02,3.59e+00,1,9.95e+00
"1/0365245491.27529",2014-11-28T09:04:55.357,13845,479.00,86.73,86.68,"21:01:07",156.78,-0.380,1.070,109.54,2.24e+02,2,,6.22e+02,3.58e+00,1,9.98e+00
"1/0365245498.63115",2014-11-28T09:05:02.900,13845,475.00,86.54,86.49,"00:08:26",149.68,-0.370,1.070,109.15,2.23e+02,2,,6.17e+02,3.59e+00,1,9.95e+00
"1/0365245506.33165",2014-11-28T09:05:10.443,13845,471.00,86.30,86.26,"00:12:25",143.38,-0.360,1.070,108.76,2.23e+02,2,,6.17e+02,3.62e+00,1,9.87e+00
"1/0365245514.03215",2014-11-28T09:05:17.986,13845,467.00,86.03,85.98,"21:10:45",137.89,-0.360,1.070,108.37,2.30e+02,2,,6.56e+02,,,
"1/0365245521.38801",2014-11-28T09:05:25.529,13845,463.00,85.72,85.67,"15:19:30",133.14,-0.350,1.070,107.98,2.36e+02,2,,6.91e+02,3.80e+00,1,9.41e+00
"1/0365245529.08917",2014-11-28T09:05:33.073,13845,459.00,85.39,85.33,"06:56:58",129.05,-0.340,1.080,107.58,2.67e+02,2,,8.84e+02,4.26e+00,1,8.39e+00
"1/0365245536.44503",2014-11-28T09:05:40.616,13845,456.00,85.03,84.97,"20:26:07",125.52,-0.330,1.080,107.19,2.84e+02,2,,1.00e+03,3.91e+00,1,9.13e+00
"1/0365245544.14553",2014-11-28T09:05:48.159,13845,452.00,84.66,84.59,"08:05:15",122.47,-0.320,1.080,106.79,2.76e+02,2,,9.45e+02,3.71e+00,1,9.64e+00
"1/0365245551.50139",2014-11-28T09:05:55.702,13845,449.00,84.27,84.20,"18:12:42",119.82,-0.320,1.080,106.39,2.95e+02,2,,1.08e+03,3.92e+00,1,9.10e+00
"1/0365245559.20189",2014-11-28T09:06:03.245,13845,445.00,83.88,83.80,"03:02:14",117.51,-0.310,1.080,105.99,2.95e+02,2,,1.08e+03,3.78e+00,1,9.44e+00
"1/0365245566.55841",2014-11-28T09:06:10.789,13845,442.00,83.47,83.39,"10:45:18",115.49,-0.300,1.080,105.59,2.83e+02,2,,9.93e+02,,,
"1/0365245574.25891",2014-11-28T09:06:18.332,13845,439.00,83.05,82.97,"17:35:40",113.70,-0.290,1.080,105.19,2.85e+02,2,,1.01e+03,3.52e+00,1,1.02e+01
"1/0365245581.61477",2014-11-28T09:06:25.875,13845,436.00,82.63,82.54,"23:37:54",112.12,-0.280,1.080,104.79,2.94e+02,2,,1.07e+03,3.37e+00,1,1.06e+01
"1/0365245589.31527",2014-11-28T09:06:33.418,13845,433.00,82.20,82.11,"05:01:10",110.71,-0.280,1.090,104.39,2.89e+02,2,,1.04e+03,3.23e+00,1,1.10e+01
"1/0365245597.01577",2014-11-28T09:06:40.961,13845,430.00,81.77,81.67,"09:50:04",109.45,-0.270,1.090,103.98,3.13e+02,2,,1.21e+03,3.21e+00,1,1.11e+01
"1/0365245604.37228",2014-11-28T09:06:48.505,13845,427.00,81.33,81.23,"14:09:10",108.32,-0.260,1.090,103.58,2.99e+02,2,,1.11e+03,3.14e+00,2,1.14e+01
"1/0365245612.07278",2014-11-28T09:06:56.048,13845,424.00,80.89,80.78,"18:05:21",107.29,-0.250,1.090,103.17,3.03e+02,2,,1.14e+03,,,
"1/0365245619.42864",2014-11-28T09:07:03.591,13845,422.00,80.44,80.33,"21:38:36",106.36,-0.240,1.090,102.77,2.98e+02,2,,1.10e+03,2.76e+00,1,1.29e+01
"1/0365245627.12914",2014-11-28T09:07:11.134,13845,419.00,80.00,79.88,"00:51:15",105.52,-0.240,1.090,102.36,3.03e+02,2,,1.14e+03,2.75e+00,1,1.30e+01
"1/0365245634.48500",2014-11-28T09:07:18.677,13845,417.00,79.55,79.42,"03:47:50",104.75,-0.230,1.090,101.95,3.10e+02,2,,1.19e+03,2.63e+00,2,1.36e+01
"1/0365245642.18616",2014-11-28T09:07:26.221,13845,414.00,79.09,78.96,"06:30:41",104.04,-0.220,1.090,101.54,3.10e+02,2,,1.19e+03,2.60e+00,1,1.38e+01
"1/0365245649.54202",2014-11-28T09:07:33.764,13845,412.00,78.64,78.50,"08:59:46",103.39,-0.210,1.090,101.13,2.98e+02,2,,1.10e+03,2.48e+00,2,1.44e+01
"1/0365245657.24252",2014-11-28T09:07:41.307,13845,410.00,78.18,78.04,"11:17:24",102.79,-0.200,1.100,100.72,3.11e+02,2,,1.20e+03,2.28e+00,2,1.57e+01
"1/0365245664.59838",2014-11-28T09:07:48.850,13845,408.00,77.72,77.57,"13:23:34",102.24,-0.200,1.100,100.31,3.18e+02,2,,1.25e+03,2.29e+00,2,1.56e+01
"1/0365245672.29954",2014-11-28T09:07:56.394,13845,406.00,77.26,77.11,"15:20:35",101.73,-0.190,1.100,99.90,3.11e+02,2,,1.20e+03,2.19e+00,2,1.63e+01
"1/0365245680.00004",2014-11-28T09:08:03.937,13845,404.00,76.80,76.64,"17:10:43",101.25,-0.180,1.100,99.49,3.23e+02,2,,1.29e+03,2.14e+00,2,1.67e+01
"1/0365245687.35590",2014-11-28T09:08:11.480,13845,402.00,76.33,76.17,"18:51:40",100.81,-0.170,1.100,99.08,3.27e+02,2,,1.33e+03,2.06e+00,2,1.73e+01
"1/0365245695.05640",2014-11-28T09:08:19.023,13845,400.00,75.87,75.70,"20:25:46",100.40,-0.160,1.100,98.66,3.40e+02,2,,1.43e+03,2.04e+00,2,1.75e+01
"1/0365245702.41226",2014-11-28T09:08:26.566,13845,399.00,75.40,75.23,"21:52:58",100.02,-0.160,1.100,98.25,3.33e+02,2,,1.38e+03,1.90e+00,2,1.88e+01
"1/0365245710.11341",2014-11-28T09:08:34.110,13845,397.00,74.93,74.76,"23:15:36",99.66,-0.150,1.100,97.83,3.45e+02,2,,1.48e+03,1.81e+00,2,1.97e+01
"1/0365245717.46927",2014-11-28T09:08:41.653,13845,396.00,74.47,74.28,"00:33:39",99.32,-0.140,1.100,97.42,3.22e+02,2,,1.29e+03,1.73e+00,2,2.06e+01
"1/0365245725.16977",2014-11-28T09:08:49.196,13845,395.00,74.00,73.81,"01:47:06",99.00,-0.130,1.100,97.01,3.12e+02,2,,1.21e+03,1.81e+00,2,1.98e+01
"1/0365245732.52563",2014-11-28T09:08:56.739,13845,393.00,73.53,73.33,"02:53:41",98.71,-0.120,1.100,96.59,2.98e+02,2,,1.10e+03,1.72e+00,2,2.08e+01
"1/0365245740.22613",2014-11-28T09:09:04.282,13845,392.00,73.06,72.86,"03:57:59",98.43,-0.120,1.100,96.17,3.33e+02,2,,1.38e+03,1.81e+00,2,1.97e+01
"1/0365245747.58265",2014-11-28T09:09:11.826,13845,391.00,72.58,72.38,"04:59:59",98.16,-0.110,1.100,95.76,3.39e+02,2,,1.43e+03,1.85e+00,1,1.93e+01
"1/0365245755.28315",2014-11-28T09:09:19.369,13845,390.00,72.11,71.91,"05:55:07",97.92,-0.100,1.100,95.34,3.46e+02,2,,1.48e+03,2.04e+00,1,1.75e+01
"1/0365245762.63901",2014-11-28T09:09:26.912,13845,389.00,71.64,71.43,"06:50:14",97.68,-0.090,1.100,94.92,3.02e+02,2,,1.13e+03,1.75e+00,2,2.04e+01
"1/0365245770.33951",2014-11-28T09:09:34.455,13845,389.00,71.16,70.95,"07:40:47",97.46,-0.080,1.110,94.51,2.69e+02,2,,8.97e+02,1.65e+00,2,2.17e+01
"1/0365245778.04001",2014-11-28T09:09:41.998,13845,388.00,70.69,70.47,"08:29:02",97.25,-0.080,1.110,94.09,3.45e+02,2,,1.48e+03,1.89e+00,2,1.89e+01
"1/0365245785.39653",2014-11-28T09:09:49.542,13845,387.00,70.22,69.99,"09:14:59",97.05,-0.070,1.110,93.67,2.91e+02,2,,1.05e+03,1.74e+00,2,2.05e+01